Location: Recife
(8.0585°S, 34.8848°W)
Time: 21:06:54
(UTC-03:00)

S-56A Canister/Altair - Pass Details

Date: 18 April 2026
Orbit: 633 x 2484 km, 38.9° (Epoch: 16 May)

Event Time Altitude Azimuth Distance (km) Brightness Sun altitude
Rises 09:17:04 0° 345° (NNW) 6,139 12.3 54.2°
Reaches altitude 10° 09:25:15 10° 11° (N) 5,038 12.2 55.9°
Maximum altitude 09:30:22 13° 32° (NNE) 4,670 12.2 57.0°
Drops below altitude 10° 09:35:08 10° 54° (NE) 4,671 12.2 57.9°
Sets 09:41:47 0° 80° (E) 5,274 12.2 59.3°
